| time (UTC) | temp F | wind direction | speed MPH | gust MPH | rain 1hr in | rain 24hr in | rain mn in | humidity % | barometer mb |
| 20260510031548 | 70 | 163 | 1.0 | 6.0 | 0.00 | 0.07 | 0.07 | 98 | 1012.5 |
| 20260510030044 | 70 | 93 | 3.0 | 8.0 | 0.01 | 0.07 | 0.07 | 98 | 1012.3 |
| 20260510024545 | 70 | 70 | 1.0 | 9.0 | 0.01 | 0.07 | 0.07 | 98 | 1012.4 |
| 20260510023047 | 70 | 161 | 5.0 | 10.0 | 0.02 | 0.07 | 0.07 | 98 | 1012.4 |
| 20260510021635 | 70 | 51 | 2.0 | 9.0 | 0.02 | 0.07 | 0.07 | 98 | 1012.2 |
| 20260510020044 | 70 | 131 | 3.0 | 11.0 | 0.01 | 0.06 | 0.06 | 99 | 1012.2 |
| 20260510014554 | 70 | 169 | 4.0 | 8.0 | 0.01 | 0.06 | 0.06 | 98 | 1011.8 |
| 20260510013055 | 70 | 193 | 2.0 | 11.0 | 0.01 | 0.05 | 0.05 | 98 | 1011.9 |
| 20260510011544 | 70 | 137 | 2.0 | 8.0 | 0.01 | 0.05 | 0.05 | 98 | 1011.3 |
| 20260510010049 | 70 | 140 | 5.0 | 9.0 | 0.03 | 0.05 | 0.05 | 98 | 1011.1 |
| 20260510004539 | 70 | 163 | 1.0 | 6.0 | 0.03 | 0.08 | 0.05 | 98 | 1011.3 |
| 20260510003045 | 70 | 157 | 1.0 | 3.0 | 0.02 | 0.07 | 0.04 | 97 | 1011.5 |
| 20260510001544 | 70 | 221 | 0.0 | 3.0 | 0.02 | 0.07 | 0.04 | 97 | 1011.8 |
| 20260510000045 | 71 | 336 | 2.0 | 5.0 | 0.01 | 0.05 | 0.02 | 97 | 1011.6 |
| 20260509234544 | 71 | 137 | 1.0 | 3.0 | 0.01 | 0.05 | 0.02 | 97 | 1010.8 |
| 20260509233041 | 71 | 26 | 1.0 | 3.0 | 0.01 | 0.05 | 0.02 | 97 | 1010.8 |
| 20260509231549 | 71 | 336 | 2.0 | 5.0 | 0.01 | 0.05 | 0.02 | 96 | 1010.6 |
| 20260509230041 | 71 | 115 | 2.0 | 7.0 | 0.00 | 0.04 | 0.01 | 96 | 1010.9 |
| 20260509224542 | 71 | 162 | 3.0 | 6.0 | 0.00 | 0.04 | 0.01 | 95 | 1011.0 |
| 20260509223047 | 71 | 194 | 3.0 | 7.0 | 0.00 | 0.04 | 0.01 | 95 | 1010.2 |
| 20260509221543 | 72 | 188 | 1.0 | 5.0 | 0.00 | 0.04 | 0.01 | 94 | 1010.3 |
| 20260509220047 | 72 | 196 | 1.0 | 7.0 | 0.00 | 0.04 | 0.01 | 93 | 1010.3 |
| 20260509214542 | 73 | 150 | 2.0 | 10.0 | 0.00 | 0.05 | 0.01 | 92 | 1010.1 |
| 20260509213102 | 73 | 158 | 2.0 | 7.0 | 0.00 | 0.05 | 0.01 | 92 | 1010.0 |
| 20260509211544 | 73 | 187 | 3.0 | 9.0 | 0.00 | 0.05 | 0.01 | 91 | 1009.9 |
| 20260509210049 | 73 | 108 | 4.0 | 12.0 | 0.00 | 0.05 | 0.01 | 92 | 1009.8 |
| 20260509204543 | 72 | 151 | 2.0 | 8.0 | 0.00 | 0.07 | 0.01 | 92 | 1010.1 |
| 20260509203042 | 71 | 107 | 2.0 | 7.0 | 0.00 | 0.07 | 0.01 | 92 | 1010.7 |
| 20260509201540 | 71 | 265 | 3.0 | 9.0 | 0.00 | 0.07 | 0.01 | 92 | 1010.8 |
| 20260509200040 | 72 | 162 | 3.0 | 9.0 | 0.00 | 0.07 | 0.01 | 92 | 1011.0 |
| 20260509194554 | 72 | 117 | 3.0 | 12.0 | 0.00 | 0.07 | 0.01 | 92 | 1010.9 |
| 20260509193048 | 72 | 77 | 2.0 | 9.0 | 0.00 | 0.07 | 0.01 | 92 | 1010.9 |
| 20260509191545 | 72 | 169 | 2.0 | 7.0 | 0.00 | 0.07 | 0.01 | 91 | 1011.0 |
| 20260509190040 | 73 | 132 | 1.0 | 6.0 | 0.00 | 0.07 | 0.01 | 94 | 1010.8 |
| 20260509184550 | 74 | 325 | 1.0 | 8.0 | 0.00 | 0.07 | 0.01 | 96 | 1010.6 |
| 20260509183047 | 73 | 115 | 1.0 | 6.0 | 0.00 | 0.07 | 0.01 | 96 | 1010.7 |
| 20260509181550 | 74 | 65 | 1.0 | 8.0 | 0.00 | 0.07 | 0.01 | 98 | 1010.9 |
| 20260509180054 | 74 | 93 | 1.0 | 8.0 | 0.00 | 0.07 | 0.01 | 99 | 1010.8 |
| 20260509174542 | 74 | 265 | 1.0 | 6.0 | 0.00 | 0.15 | 0.01 | 99 | 1011.0 |
| 20260509173052 | 74 | 128 | 1.0 | 4.0 | 0.00 | 0.15 | 0.01 | 99 | 1011.1 |
| 20260509171541 | 74 | 265 | 0.0 | 3.0 | 0.00 | 0.15 | 0.01 | 100 | 1011.2 |
| 20260509170044 | 74 | 51 | 2.0 | 7.0 | 0.00 | 0.15 | 0.01 | 99 | 1011.4 |
| 20260509164544 | 74 | 137 | 2.0 | 5.0 | 0.00 | 1.26 | 0.01 | 100 | 1011.5 |
| 20260509163040 | 74 | 34 | 1.0 | 6.0 | 0.00 | 1.26 | 0.01 | 100 | 1011.4 |
| 20260509161553 | 74 | 123 | 1.0 | 4.0 | 0.00 | 1.26 | 0.01 | 100 | 1011.5 |
| 20260509160039 | 74 | 165 | 1.0 | 5.0 | 0.00 | 1.26 | 0.01 | 100 | 1011.6 |
| 20260509154549 | 73 | 126 | 1.0 | 4.0 | 0.00 | 2.11 | 0.01 | 100 | 1011.5 |
| 20260509153055 | 73 | 9 | 1.0 | 4.0 | 0.00 | 2.11 | 0.01 | 100 | 1011.1 |
| 20260509151541 | 73 | 137 | 1.0 | 3.0 | 0.00 | 2.11 | 0.01 | 100 | 1011.0 |
| 20260509150041 | 73 | 178 | 1.0 | 4.0 | 0.00 | 2.11 | 0.01 | 100 | 1011.0 |
| 20260509144544 | 72 | 319 | 1.0 | 3.0 | 0.00 | 2.20 | 0.01 | 100 | 1011.0 |
| 20260509143043 | 72 | 9 | 1.0 | 4.0 | 0.00 | 2.20 | 0.01 | 100 | 1010.9 |
| 20260509141544 | 72 | 123 | 1.0 | 3.0 | 0.00 | 2.20 | 0.01 | 100 | 1010.8 |
| 20260509140056 | 71 | 178 | 1.0 | 4.0 | 0.00 | 2.20 | 0.01 | 100 | 1010.7 |
| 20260509134541 | 71 | 265 | 1.0 | 4.0 | 0.00 | 2.22 | 0.01 | 100 | 1011.0 |
| 20260509133041 | 71 | 76 | 1.0 | 4.0 | 0.00 | 2.22 | 0.01 | 100 | 1010.9 |
| 20260509131537 | 71 | 22 | 1.0 | 5.0 | 0.00 | 2.22 | 0.01 | 100 | 1011.1 |
| 20260509130044 | 71 | 303 | 1.0 | 9.0 | 0.00 | 2.22 | 0.01 | 100 | 1011.2 |
| 20260509124551 | 71 | 64 | 2.0 | 6.0 | 0.00 | 2.22 | 0.01 | 100 | 1011.1 |
| 20260509123042 | 71 | 9 | 2.0 | 5.0 | 0.00 | 2.22 | 0.01 | 100 | 1011.0 |
| 20260509121538 | 70 | 26 | 0.0 | 3.0 | 0.00 | 2.22 | 0.01 | 100 | 1011.0 |
| 20260509120039 | 70 | 0 | 0.0 | 3.0 | 0.01 | 2.22 | 0.01 | 100 | 1010.9 |
| 20260509114544 | 70 | 119 | 0.0 | 2.0 | 0.01 | 2.22 | 0.01 | 100 | 1010.9 |
| 20260509113044 | 70 | 265 | 1.0 | 4.0 | 0.01 | 2.22 | 0.01 | 100 | 1010.6 |
| 20260509111545 | 70 | 129 | 0.0 | 3.0 | 0.01 | 2.22 | 0.01 | 100 | 1010.7 |
| 20260509110044 | 70 | 0 | 1.0 | 4.0 | 0.00 | 2.21 | 0.00 | 100 | 1010.6 |
| 20260509104541 | 70 | 0 | 0.0 | 2.0 | 0.00 | 2.21 | 0.00 | 100 | 1010.4 |
| 20260509103045 | 70 | 34 | 0.0 | 2.0 | 0.00 | 2.21 | 0.00 | 100 | 1010.2 |
| 20260509101539 | 70 | 265 | 0.0 | 2.0 | 0.00 | 2.21 | 0.00 | 100 | 1010.0 |
| 20260509100043 | 70 | 0 | 0.0 | 1.0 | 0.00 | 2.21 | 0.00 | 100 | 1009.8 |
| 20260509094554 | 70 | 0 | 0.0 | 1.0 | 0.00 | 2.21 | 0.00 | 100 | 1009.8 |
| 20260509093042 | 70 | 0 | 0.0 | 2.0 | 0.00 | 2.21 | 0.00 | 100 | 1009.6 |
| 20260509091547 | 70 | 137 | 1.0 | 5.0 | 0.00 | 2.21 | 0.00 | 100 | 1009.4 |
| 20260509090054 | 69 | 141 | 1.0 | 4.0 | 0.00 | 2.21 | 0.00 | 100 | 1009.4 |
| 20260509084537 | 68 | 137 | 0.0 | 1.0 | 0.00 | 2.21 | 0.00 | 100 | 1009.5 |
| 20260509083043 | 68 | 265 | 0.0 | 1.0 | 0.00 | 2.21 | 0.00 | 100 | 1010.0 |
| 20260509081543 | 68 | 0 | 0.0 | 1.0 | 0.00 | 2.21 | 0.00 | 99 | 1009.9 |
| 20260509080048 | 68 | 9 | 0.0 | 1.0 | 0.00 | 2.21 | 0.00 | 99 | 1010.0 |
| 20260509074555 | 69 | 205 | 0.0 | 2.0 | 0.00 | 2.21 | 0.00 | 99 | 1009.9 |
| 20260509073057 | 69 | 126 | 0.0 | 2.0 | 0.00 | 2.21 | 0.00 | 99 | 1009.9 |
| 20260509071542 | 69 | 165 | 0.0 | 5.0 | 0.00 | 2.21 | 0.00 | 99 | 1010.1 |
| 20260509070048 | 69 | 170 | 2.0 | 6.0 | 0.00 | 2.21 | 0.00 | 99 | 1010.2 |
| 20260509064541 | 69 | 173 | 3.0 | 6.0 | 0.00 | 2.21 | 0.00 | 100 | 1010.3 |
| 20260509063053 | 69 | 178 | 2.0 | 5.0 | 0.00 | 2.21 | 0.00 | 99 | 1010.4 |
| 20260509061545 | 69 | 160 | 2.0 | 7.0 | 0.00 | 2.21 | 0.00 | 99 | 1010.5 |
| 20260509060106 | 69 | 161 | 3.0 | 6.0 | 0.00 | 2.21 | 0.00 | 99 | 1010.7 |
| 20260509054543 | 69 | 157 | 2.0 | 5.0 | 0.00 | 2.21 | 0.00 | 99 | 1011.0 |
| 20260509053054 | 69 | 144 | 1.0 | 5.0 | 0.00 | 2.21 | 0.00 | 99 | 1011.0 |
| 20260509051546 | 69 | 146 | 1.0 | 5.0 | 0.00 | 2.21 | 0.00 | 99 | 1011.0 |
| 20260509050049 | 69 | 149 | 1.0 | 5.0 | 0.00 | 2.21 | 0.00 | 99 | 1011.3 |
| 20260509044537 | 69 | 153 | 2.0 | 6.0 | 0.00 | 2.21 | 2.21 | 99 | 1011.3 |
| 20260509043050 | 69 | 0 | 1.0 | 5.0 | 0.00 | 2.21 | 2.21 | 99 | 1011.4 |
| 20260509041539 | 69 | 165 | 1.0 | 5.0 | 0.00 | 2.21 | 2.21 | 99 | 1011.4 |
| 20260509034537 | 69 | 0 | 0.0 | 4.0 | 0.00 | 2.21 | 2.21 | 99 | 1011.4 |
| 20260509033109 | 69 | 153 | 0.0 | 2.0 | 0.00 | 2.21 | 2.21 | 99 | 1011.5 |